[[{"header":{"parameterUnit":"m.s-1","parameterCategory":1,"la1":30.2991,"la2":30.254,"lo1":-89.0895,"lo2":-89.0444,"dy":0.0017,"dx":0.0017,"nx":28,"ny":28,"refTime":"2024-05-27T21:00:00:Z","depth":0,"parameterNumber":2,"parameterNumberName":"U-component_of_WINDS"},"data":[0,0,0,0,0,0,0,0,0,0,0,0,0,0,0,0,0,0,0,0,0,0,0,0,0,0,0,0,0,0,0,0,0,0,0,0,0,0,0,0,0,0,0,0,0,0,0,0,0,0,0,0,0,0,0,0,0,0,3.9205,3.9205,0,3.92,3.92,3.92,3.9087,3.9084,3.9081,3.9078,3.9079,3.9082,3.9084,0,0,0,0,0,0,0,0,0,0,0,0,0,3.9123,3.9125,3.9205,3.9205,3.9205,3.92,3.92,3.92,3.9088,3.9084,3.908,3.9077,3.9078,3.9081,3.9085,0,0,0,0,0,0,0,0,0,0,0,0,0,3.9143,3.9126,3.9205,3.9148,3.9143,3.92,3.92,3.92,3.9088,3.9084,3.9079,3.9075,3.9077,3.9081,3.9085,3.9198,0,0,3.9098,3.9099,0,0,0,0,0,0,0,0,3.9142,3.9146,3.9157,3.9152,3.9147,3.9139,3.9171,3.9199,3.9089,3.9109,3.9078,3.9073,3.9103,3.9105,3.9114,3.9198,3.9198,3.9098,3.91,3.9102,3.9103,0,0,0,0,0,0,0,3.914,3.9145,3.9203,3.9157,3.9151,3.9125,3.9123,3.9176,3.9131,3.9107,3.9099,3.91,3.9099,3.911,3.9113,3.9198,3.9098,3.9101,3.9104,3.9106,3.9374,3.9379,0,0,0,0,0,0,3.9146,3.9145,3.9203,3.9203,3.9133,3.913,3.9127,3.9146,3.913,3.9123,3.9103,3.9094,3.9105,3.9108,3.9112,3.9243,3.9102,3.9106,3.9108,3.937,3.9375,3.938,0,0,0,0,0,0,3.9145,3.9152,3.9204,3.9172,3.9176,3.9136,3.9158,3.9149,3.9159,3.9127,3.9119,3.9122,3.9102,3.9107,3.9177,3.9241,3.9108,3.9112,3.9364,3.9371,3.9378,3.9505,0,0,0,0,0,0,3.9143,3.9153,3.9194,3.9173,3.9178,3.9267,3.9162,3.9152,3.9165,3.9154,3.9142,3.9136,3.9099,3.9171,3.9181,3.9244,3.9115,3.9358,3.9367,3.9375,3.9495,3.9515,3.9533,0,0,0,0,0,3.914,3.9231,3.9197,3.9204,3.9229,3.9271,3.9274,3.9227,3.9171,3.9213,3.9192,3.9137,3.9233,3.918,3.9189,3.9255,3.9354,3.9365,3.9375,3.9486,3.9511,3.9533,0,0,0,0,0,0,3.9263,3.9228,3.9189,3.9275,3.9277,3.9252,3.9303,3.9256,3.9274,3.9263,3.9206,3.9204,3.9284,3.9276,3.9218,3.9363,3.9283,3.9296,3.9365,3.9388,3.9407,3.9407,3.9118,0,0,0,0,0,3.93,3.9335,3.9303,3.9383,3.9385,3.9345,3.9361,3.9325,3.9325,3.9325,3.931,3.9314,3.9344,3.9366,3.9393,3.9493,3.9489,3.9543,3.9562,3.9578,3.959,3.9642,3.9666,3.9415,3.9415,3.9414,0,0,3.9377,3.9362,3.9388,3.9407,3.9404,3.9443,3.9346,3.9392,3.9421,3.9333,3.9397,3.9387,3.9387,3.9473,3.951,3.9469,3.9658,3.9592,3.9604,3.9608,3.9655,3.9679,3.97,3.9422,3.9421,3.9419,0,0,3.9537,3.9529,3.9594,3.9592,3.9588,3.956,3.9576,3.9558,3.9546,3.961,3.9544,3.9579,3.9634,3.9636,3.9645,3.9805,3.9754,3.9816,3.9915,3.9967,3.9987,4.0004,4.0061,4.0082,3.9828,3.9828,3.9828,0,3.9633,3.9688,3.9634,3.9684,3.9694,3.9614,3.968,3.9682,3.9688,3.9698,3.9652,3.9717,3.9712,3.9797,3.9836,3.9846,3.9862,3.9816,3.9988,4.0005,4.002,4.0073,4.0095,3.9835,3.9835,3.9834,3.9833,0,3.9807,3.9846,3.99,3.9904,3.9921,3.9979,3.9935,3.9959,3.9921,3.9899,3.9965,3.9955,3.9978,3.9996,3.9961,4.0076,4.0051,3.9997,3.9916,4.0052,4.0101,4.0122,3.9846,3.9843,3.9841,3.9839,0,0,4.0045,4.0017,4.0038,4.0039,4.0028,4.0058,4.0113,4.0133,4.0154,4.0161,4.0206,4.0253,4.0203,4.0213,4.0177,4.0222,4.0349,4.0163,4.0162,4.0198,4.0476,4.0515,4.054,4.0316,4.0319,4.0322,4.0475,0,4.0198,4.0288,4.0241,4.0337,4.0373,4.0297,4.0345,4.0344,4.0325,4.0353,4.0332,4.0367,4.0298,4.0304,4.0345,4.0325,4.0404,4.0314,4.0358,4.036,4.0359,4.0566,4.0608,4.0753,4.0494,4.0498,4.05,0,4.039,4.0402,4.0502,4.0483,4.0496,4.054,4.0554,4.0582,4.058,4.0562,4.0573,4.0526,4.058,4.05,4.0573,4.0512,4.0527,4.0521,4.0525,4.0527,4.0438,4.0573,4.0798,4.082,4.053,4.0527,4.0525,0,4.0553,4.0594,4.0658,4.0662,4.0642,4.0674,4.0668,4.0661,4.0676,4.0689,4.0698,4.0719,4.073,4.0748,4.0708,4.0653,4.0787,4.0704,4.0775,4.0776,4.0806,4.0805,4.1036,4.0817,4.0817,4.0817,4.0816,0,4.0729,4.0793,4.0731,4.0771,4.084,4.0786,4.0857,4.0843,4.0837,4.0874,4.0811,4.0847,4.0792,4.0824,4.0793,4.0858,4.0864,4.0853,4.0844,4.0858,4.0859,4.0867,4.0856,4.0822,4.0821,4.082,4.0819,0,4.0922,4.0883,4.0948,4.0923,4.0919,4.0971,4.095,4.0987,4.0962,4.101,4.1018,4.098,4.1014,4.0976,4.1007,4.0986,4.1074,4.1051,4.1074,4.1068,4.1141,4.1134,4.1385,4.1415,4.1177,4.118,4.1182,0,4.1037,4.1084,4.1064,4.1082,4.1079,4.1111,4.1125,4.1074,4.1092,4.1092,4.1129,4.1156,4.1175,4.1233,4.1209,4.1232,4.1209,4.1295,4.1212,4.1225,4.121,4.1207,4.1211,4.1312,4.1315,4.1317,4.1319,0,4.1246,4.1224,4.1245,4.1261,4.1279,4.1289,4.1295,4.1315,4.1261,4.1285,4.1317,4.1332,4.1362,4.139,4.1407,4.1401,4.1352,4.1345,4.1363,4.1378,4.1389,4.1384,4.112,4.134,4.1338,4.1336,4.1335,4.1334,4.1403,4.1441,4.1432,4.1458,4.1456,4.1463,4.1495,4.1474,4.1499,4.1519,4.1487,4.1528,4.1524,4.1541,4.1541,4.1573,4.1536,4.1562,4.1568,4.1575,4.1586,4.1385,4.1576,4.1575,4.1575,4.1574,4.1574,0,4.1608,4.1597,4.1622,4.1631,4.1652,4.1601,4.1605,4.1627,4.1662,4.1662,4.1681,4.1718,4.1745,4.1723,4.1746,4.1775,4.1753,4.1783,4.178,4.178,4.1618,4.16,4.18,4.18,4.18,4.18,4.18,4.18,4.1716,4.1777,4.1754,4.1814,4.1804,4.1841,4.1847,4.1853,4.1853,4.1896,4.1917,4.1902,4.1893,4.1915,4.1937,4.193,4.1942,4.1979,4.1965,4.1814,4.1791,4.177,4.1753,4.1982,4.1983,4.2124,4.2125,4.2126]},{"header":{"parameterUnit":"m.s-1","parameterCategory":1,"la1":30.2991,"la2":30.254,"lo1":-89.0895,"lo2":-89.0444,"dy":0.0017,"dx":0.0017,"nx":28,"ny":28,"refTime":"2024-05-27T21:00:00:Z","depth":0,"parameterNumber":3,"parameterNumberName":"V-component_of_WINDS"},"data":[0,0,0,0,0,0,0,0,0,0,0,0,0,0,0,0,0,0,0,0,0,0,0,0,0,0,0,0,0,0,0,0,0,0,0,0,0,0,0,0,0,0,0,0,0,0,0,0,0,0,0,0,0,0,0,0,0,0,2.9058,2.9059,0,2.9145,2.9145,2.9146,2.9154,2.9153,2.9152,2.9151,2.9232,2.9235,2.9238,0,0,0,0,0,0,0,0,0,0,0,0,0,2.889,2.8893,2.9057,2.9059,2.906,2.9144,2.9146,2.9147,2.9154,2.9153,2.9152,2.9151,2.9231,2.9235,2.9239,0,0,0,0,0,0,0,0,0,0,0,0,0,2.8968,2.8894,2.9057,2.9074,2.9076,2.9144,2.9146,2.9147,2.9155,2.9153,2.9152,2.9151,2.923,2.9235,2.9239,2.9294,0,0,2.9253,2.9255,0,0,0,0,0,0,0,0,2.8964,2.8974,2.907,2.9073,2.9076,2.9137,2.9116,2.9196,2.9155,2.9125,2.9151,2.915,2.9201,2.9208,2.9227,2.9298,2.9301,2.9253,2.9256,2.9258,2.9259,0,0,0,0,0,0,0,2.8958,2.897,2.9092,2.9072,2.9075,2.9074,2.9084,2.9131,2.9169,2.9127,2.9128,2.9139,2.9202,2.9223,2.9229,2.9302,2.9253,2.9257,2.926,2.9262,2.9421,2.9422,0,0,0,0,0,0,2.8951,2.8966,2.9089,2.9094,2.9015,2.9078,2.9089,2.9119,2.9169,2.9175,2.914,2.9139,2.9216,2.9224,2.9232,2.9299,2.9258,2.9262,2.9265,2.9419,2.9421,2.9423,0,0,0,0,0,0,2.8947,2.8962,2.9085,2.903,2.9046,2.9083,2.9116,2.9121,2.9142,2.9178,2.9184,2.9154,2.9215,2.9226,2.9279,2.9302,2.9264,2.9268,2.9417,2.942,2.9422,2.9433,0,0,0,0,0,0,2.8942,2.896,2.8984,2.9031,2.9049,2.9133,2.9117,2.9124,2.915,2.915,2.9193,2.9199,2.9215,2.9272,2.9283,2.9307,2.9272,2.9416,2.9419,2.9421,2.9431,2.9436,2.944,0,0,0,0,0,2.8936,2.8982,2.8985,2.8999,2.9079,2.9135,2.9145,2.9164,2.9152,2.9174,2.9198,2.9198,2.9298,2.9277,2.929,2.9316,2.9414,2.9418,2.9421,2.9429,2.9435,2.944,0,0,0,0,0,0,2.8933,2.8988,2.8992,2.9055,2.909,2.9136,2.9165,2.9169,2.9207,2.9205,2.9224,2.9234,2.9286,2.9306,2.9283,2.9371,2.9354,2.936,2.9356,2.9362,2.9366,2.936,2.9275,0,0,0,0,0,2.894,2.8983,2.9028,2.9078,2.9097,2.9128,2.9152,2.9164,2.9201,2.9215,2.9242,2.9275,2.9314,2.9339,2.9377,2.9434,2.9443,2.9458,2.9462,2.9466,2.947,2.9501,2.9508,2.9434,2.9434,2.9434,0,0,2.8954,2.8989,2.9015,2.9079,2.9108,2.9149,2.914,2.9184,2.9215,2.9221,2.9273,2.9294,2.9332,2.9388,2.9413,2.9406,2.9493,2.947,2.9472,2.9475,2.9505,2.9512,2.9518,2.9436,2.9436,2.9436,0,0,2.9,2.9033,2.9078,2.9108,2.9153,2.9174,2.9184,2.923,2.9245,2.9298,2.9304,2.9338,2.9405,2.9432,2.9454,2.9511,2.9512,2.9523,2.9545,2.9575,2.958,2.9586,2.9605,2.9612,2.9527,2.9527,2.9528,0,2.9011,2.9077,2.91,2.9145,2.9172,2.9183,2.9228,2.9254,2.9308,2.9325,2.9317,2.9401,2.9427,2.9488,2.9503,2.9521,2.9532,2.9518,2.9578,2.9584,2.9589,2.9607,2.9615,2.9528,2.9528,2.9528,2.9528,0,2.9088,2.9133,2.9164,2.9219,2.9249,2.9294,2.9321,2.9349,2.9358,2.9378,2.9432,2.9464,2.9508,2.9524,2.9532,2.9586,2.958,2.9575,2.9558,2.9596,2.9614,2.9621,2.953,2.9529,2.9529,2.9529,0,0,2.9134,2.9202,2.9213,2.9238,2.9288,2.9322,2.9366,2.9412,2.9435,2.9471,2.9507,2.9564,2.9559,2.9585,2.9596,2.9622,2.9664,2.9614,2.9615,2.9621,2.9724,2.9727,2.9735,2.9665,2.9667,2.9668,2.972,0,2.9185,2.9268,2.929,2.9358,2.9399,2.941,2.9448,2.9481,2.9501,2.9537,2.9558,2.9598,2.9589,2.9605,2.9631,2.9653,2.9685,2.965,2.9696,2.9698,2.9686,2.9744,2.9748,2.9795,2.9727,2.9728,2.9729,0,2.9257,2.9298,2.9372,2.9417,2.9435,2.9469,2.9513,2.9548,2.9585,2.9597,2.9626,2.9635,2.9679,2.9661,2.972,2.9696,2.9716,2.9729,2.9732,2.9736,2.9715,2.9749,2.9811,2.9818,2.9741,2.974,2.9739,0,2.9282,2.9355,2.9409,2.943,2.9484,2.9508,2.9531,2.9568,2.9594,2.9631,2.9647,2.9688,2.971,2.974,2.9758,2.9744,2.9815,2.9799,2.9825,2.9824,2.9839,2.9837,2.9904,2.9853,2.9853,2.9853,2.9853,0,2.9337,2.9381,2.9421,2.9454,2.9503,2.9527,2.9574,2.9596,2.9629,2.9664,2.9675,2.9707,2.973,2.9765,2.9779,2.9825,2.9835,2.9845,2.9848,2.9843,2.9842,2.9856,2.9853,2.9855,2.9855,2.9854,2.9854,0,2.9373,2.9402,2.9461,2.9509,2.9521,2.9555,2.9594,2.9625,2.9646,2.969,2.9702,2.9733,2.9775,2.9797,2.9848,2.9857,2.9909,2.991,2.9897,2.9898,2.9922,2.9919,3.0,3.0011,2.9953,2.9954,2.9954,0,2.9406,2.9441,2.9493,2.9519,2.9543,2.9585,2.9612,2.9636,2.9663,2.9709,2.9733,2.9776,2.9812,2.9877,2.9902,2.9941,2.9943,2.9968,2.9948,2.9943,2.9942,2.9939,2.9942,2.9971,2.9972,2.9972,2.9973,0,2.9461,2.9474,2.9515,2.9561,2.9594,2.963,2.9666,2.9686,2.9715,2.9745,2.9789,2.9817,2.987,2.9911,2.9952,2.9973,2.9977,2.9979,2.9987,2.9982,2.9973,2.9977,2.9905,2.9977,2.9976,2.9976,2.9976,2.9976,2.9496,2.9527,2.9569,2.9614,2.9644,2.9677,2.9708,2.9734,2.9772,2.982,2.9831,2.9877,2.9912,2.9968,2.9989,3.0024,3.0018,3.003,3.0033,3.0035,3.0035,2.9968,3.0031,3.0031,3.0031,3.0031,3.0031,0,2.955,2.9578,2.9619,2.9671,2.9705,2.971,2.9749,2.9777,2.9819,2.9853,2.9888,2.9938,2.9978,3.0007,3.0048,3.0069,3.0072,3.0079,3.0077,3.0081,3.0038,3.0027,3.0076,3.0076,3.0076,3.0076,3.0076,3.0076,2.9582,2.9636,2.9653,2.972,2.9747,2.9795,2.9817,2.9847,2.9874,2.993,2.9965,2.9985,3.0016,3.0059,3.0096,3.0103,3.0116,3.0123,3.013,3.0089,3.0084,3.008,3.0069,3.0126,3.0126,3.017,3.0171,3.0171]}]]